| time (UTC) | temp F | wind direction | speed knots | gust knots | rain 1hr in | rain 24hr in | rain mn in | humidity % | barometer mb |
| 20260905005505 | 83 | 249 | 1.7 | 1.7 | 0.00 | 0.00 | 0.00 | 83 | 1013.6 |
| 20260905005006 | 83 | 249 | 0.9 | 1.7 | 0.00 | 0.00 | 0.00 | 82 | 1013.6 |
| 20260905004505 | 83 | 249 | 0.0 | 0.9 | 0.00 | 0.00 | 0.00 | 82 | 1013.8 |
| 20260905004005 | 84 | 249 | 0.9 | 2.6 | 0.00 | 0.00 | 0.00 | 82 | 1013.9 |
| 20260905001005 | 87 | 283 | 0.9 | 1.7 | 0.00 | 0.00 | 0.00 | 76 | 1014.0 |
| 20260905000505 | 87 | 283 | 0.9 | 1.7 | 0.00 | 0.00 | 0.00 | 76 | 1014.2 |
| 20260904235505 | 87 | 275 | 0.9 | 1.7 | 0.00 | 0.00 | 0.00 | 75 | 1014.2 |
| 20260904234505 | 88 | 216 | 0.9 | 1.7 | 0.00 | 0.00 | 0.00 | 71 | 1014.1 |
| 20260904234006 | 88 | 255 | 0.9 | 1.7 | 0.00 | 0.00 | 0.00 | 71 | 1014.1 |
| 20260904233505 | 88 | 245 | 0.0 | 1.7 | 0.00 | 0.00 | 0.00 | 71 | 1014.0 |
| 20260904232506 | 89 | 245 | 0.0 | 0.9 | 0.00 | 0.00 | 0.00 | 69 | 1013.9 |
| 20260904230005 | 90 | 235 | 1.7 | 4.3 | 0.00 | 0.00 | 0.00 | 66 | 1013.9 |
| 20260904225005 | 91 | 253 | 2.6 | 6.1 | 0.00 | 0.00 | 0.00 | 64 | 1014.0 |
| 20260904224505 | 92 | 237 | 2.6 | 4.3 | 0.00 | 0.00 | 0.00 | 63 | 1013.9 |
| 20260904224005 | 92 | 223 | 3.5 | 4.3 | 0.00 | 0.00 | 0.00 | 62 | 1013.9 |
| 20260904223505 | 92 | 212 | 1.7 | 7.0 | 0.00 | 0.00 | 0.00 | 63 | 1013.5 |
| 20260904223006 | 92 | 207 | 4.3 | 6.1 | 0.00 | 0.00 | 0.00 | 62 | 1013.4 |
| 20260904222505 | 92 | 189 | 5.2 | 8.7 | 0.00 | 0.00 | 0.00 | 60 | 1013.4 |
| 20260904221506 | 93 | 190 | 4.3 | 10.4 | 0.00 | 0.00 | 0.00 | 60 | 1013.1 |
| 20260904220005 | 93 | 196 | 7.8 | 11.3 | 0.00 | 0.00 | 0.00 | 59 | 1013.2 |
| 20260904215005 | 94 | 207 | 6.1 | 8.7 | 0.00 | 0.00 | 0.00 | 59 | 1013.0 |
| 20260904214505 | 94 | 190 | 7.0 | 10.4 | 0.00 | 0.00 | 0.00 | 58 | 1013.0 |
| 20260904213005 | 94 | 192 | 7.8 | 12.2 | 0.00 | 0.00 | 0.00 | 56 | 1013.1 |
| 20260904212505 | 94 | 186 | 8.7 | 13.0 | 0.00 | 0.00 | 0.00 | 56 | 1013.1 |
| 20260904212005 | 95 | 199 | 7.8 | 11.3 | 0.00 | 0.00 | 0.00 | 59 | 1013.0 |
| 20260904211505 | 94 | 177 | 7.8 | 12.2 | 0.00 | 0.00 | 0.00 | 57 | 1013.0 |
| 20260904211005 | 95 | 180 | 8.7 | 12.2 | 0.00 | 0.00 | 0.00 | 57 | 1012.8 |
| 20260904205504 | 95 | 191 | 7.0 | 13.0 | 0.00 | 0.00 | 0.00 | 57 | 1012.8 |
| 20260904204005 | 95 | 188 | 7.8 | 11.3 | 0.00 | 0.00 | 0.00 | 55 | 1012.8 |
| 20260904203005 | 95 | 186 | 7.8 | 14.8 | 0.00 | 0.00 | 0.00 | 56 | 1012.9 |
| 20260904201505 | 95 | 174 | 7.8 | 12.2 | 0.00 | 0.00 | 0.00 | 55 | 1013.2 |
| 20260904200505 | 96 | 193 | 5.2 | 12.2 | 0.00 | 0.00 | 0.00 | 55 | 1013.4 |
| 20260904200005 | 95 | 206 | 6.1 | 13.0 | 0.00 | 0.00 | 0.00 | 54 | 1013.4 |
| 20260904195005 | 96 | 183 | 7.8 | 13.0 | 0.00 | 0.00 | 0.00 | 55 | 1013.4 |
| 20260904192005 | 92 | 214 | 5.2 | 7.8 | 0.00 | 0.00 | 0.00 | 59 | 1014.0 |
| 20260904191505 | 92 | 193 | 5.2 | 8.7 | 0.00 | 0.00 | 0.00 | 61 | 1014.1 |
| 20260904190005 | 92 | 198 | 4.3 | 7.0 | 0.00 | 0.00 | 0.00 | 60 | 1014.2 |
| 20260904185005 | 92 | 214 | 4.3 | 7.0 | 0.00 | 0.00 | 0.00 | 59 | 1014.4 |
| 20260904183505 | 92 | 216 | 2.6 | 7.0 | 0.00 | 0.00 | 0.00 | 61 | 1014.5 |
| 20260904182505 | 91 | 213 | 6.1 | 8.7 | 0.00 | 0.00 | 0.00 | 59 | 1014.6 |
| 20260904175505 | 92 | 216 | 6.1 | 10.4 | 0.00 | 0.00 | 0.00 | 59 | 1014.6 |
| 20260904174505 | 92 | 207 | 7.0 | 10.4 | 0.00 | 0.00 | 0.00 | 57 | 1014.6 |
| 20260904173505 | 95 | 186 | 4.3 | 8.7 | 0.00 | 0.00 | 0.00 | 58 | 1014.6 |
| 20260904172505 | 93 | 221 | 5.2 | 7.8 | 0.00 | 0.00 | 0.00 | 59 | 1014.6 |
| 20260904172004 | 92 | 214 | 6.1 | 8.7 | 0.00 | 0.00 | 0.00 | 59 | 1014.6 |
| 20260904171504 | 93 | 241 | 6.1 | 10.4 | 0.00 | 0.00 | 0.00 | 57 | 1014.6 |
| 20260904171005 | 95 | 223 | 5.2 | 8.7 | 0.00 | 0.00 | 0.00 | 56 | 1014.7 |
| 20260904170505 | 95 | 245 | 7.0 | 12.2 | 0.00 | 0.00 | 0.00 | 57 | 1014.7 |
| 20260904165504 | 94 | 223 | 7.0 | 13.0 | 0.00 | 0.00 | 0.00 | 56 | 1014.9 |
| 20260904164504 | 93 | 231 | 6.1 | 10.4 | 0.00 | 0.00 | 0.00 | 59 | 1014.8 |
| 20260904162004 | 94 | 250 | 5.2 | 7.8 | 0.00 | 0.00 | 0.00 | 59 | 1015.0 |
| 20260904161005 | 92 | 246 | 3.5 | 10.4 | 0.00 | 0.00 | 0.00 | 62 | 1014.9 |
| 20260904160504 | 91 | 230 | 5.2 | 8.7 | 0.00 | 0.00 | 0.00 | 62 | 1014.9 |
| 20260904160005 | 91 | 218 | 6.1 | 8.7 | 0.00 | 0.00 | 0.00 | 62 | 1014.9 |
| 20260904155504 | 91 | 244 | 2.6 | 7.0 | 0.00 | 0.00 | 0.00 | 63 | 1014.9 |
| 20260904155005 | 91 | 247 | 2.6 | 7.0 | 0.00 | 0.00 | 0.00 | 65 | 1014.8 |
| 20260904152504 | 90 | 239 | 4.3 | 7.8 | 0.00 | 0.00 | 0.00 | 65 | 1015.0 |
| 20260904151504 | 89 | 273 | 5.2 | 10.4 | 0.00 | 0.00 | 0.00 | 67 | 1014.9 |
| 20260904144005 | 86 | 238 | 4.3 | 7.0 | 0.00 | 0.00 | 0.00 | 71 | 1014.7 |
| 20260904142004 | 84 | 220 | 2.6 | 6.1 | 0.00 | 0.00 | 0.00 | 77 | 1014.5 |
| 20260904140505 | 83 | 232 | 2.6 | 4.3 | 0.00 | 0.00 | 0.00 | 79 | 1014.5 |
| 20260904135004 | 81 | 224 | 1.7 | 4.3 | 0.00 | 0.00 | 0.00 | 82 | 1014.4 |
| 20260904134005 | 80 | 204 | 2.6 | 4.3 | 0.00 | 0.00 | 0.00 | 83 | 1014.4 |
| 20260904133504 | 80 | 222 | 2.6 | 2.6 | 0.00 | 0.00 | 0.00 | 84 | 1014.4 |
| 20260904132005 | 78 | 174 | 0.9 | 1.7 | 0.00 | 0.00 | 0.00 | 85 | 1014.4 |
| 20260904131504 | 77 | 225 | 0.9 | 1.7 | 0.00 | 0.00 | 0.00 | 86 | 1014.4 |
| 20260904131005 | 77 | 253 | 0.0 | 1.7 | 0.00 | 0.00 | 0.00 | 86 | 1014.4 |
| 20260904125506 | 76 | 199 | 1.7 | 2.6 | 0.00 | 0.00 | 0.00 | 89 | 1014.3 |
| 20260904123005 | 74 | 165 | 0.9 | 2.6 | 0.00 | 0.00 | 0.00 | 91 | 1014.1 |
| 20260904122504 | 74 | 209 | 0.9 | 1.7 | 0.00 | 0.00 | 0.00 | 91 | 1014.0 |
| 20260904122004 | 73 | 213 | 1.7 | 2.6 | 0.00 | 0.00 | 0.00 | 92 | 1013.9 |
| 20260904121004 | 73 | 209 | 1.7 | 1.7 | 0.00 | 0.00 | 0.00 | 93 | 1013.9 |
| 20260904120004 | 73 | 209 | 1.7 | 1.7 | 0.00 | 0.00 | 0.00 | 92 | 1013.9 |
| 20260904114504 | 72 | 209 | 1.7 | 2.6 | 0.00 | 0.00 | 0.00 | 93 | 1013.8 |
| 20260904112505 | 72 | 198 | 1.7 | 2.6 | 0.00 | 0.00 | 0.00 | 94 | 1013.6 |
| 20260904111005 | 72 | 181 | 1.7 | 1.7 | 0.00 | 0.00 | 0.00 | 94 | 1013.4 |
| 20260904110504 | 72 | 152 | 1.7 | 1.7 | 0.00 | 0.00 | 0.00 | 94 | 1013.5 |
| 20260904105504 | 72 | 144 | 0.9 | 1.7 | 0.00 | 0.00 | 0.00 | 94 | 1013.4 |
| 20260904105004 | 72 | 144 | 0.9 | 1.7 | 0.00 | 0.00 | 0.00 | 93 | 1013.4 |
| 20260904104005 | 72 | 144 | 0.9 | 0.9 | 0.00 | 0.00 | 0.00 | 93 | 1013.5 |
| 20260904103504 | 73 | 143 | 0.9 | 0.9 | 0.00 | 0.00 | 0.00 | 93 | 1013.5 |
| 20260904103005 | 73 | 144 | 0.0 | 0.9 | 0.00 | 0.00 | 0.00 | 94 | 1013.6 |
| 20260904102504 | 72 | 144 | 0.0 | 1.7 | 0.00 | 0.00 | 0.00 | 94 | 1013.6 |
| 20260904102004 | 72 | 144 | 0.9 | 0.9 | 0.00 | 0.00 | 0.00 | 93 | 1013.6 |
| 20260904101004 | 73 | 144 | 0.9 | 1.7 | 0.00 | 0.00 | 0.00 | 93 | 1013.6 |
| 20260904095504 | 73 | 159 | 1.7 | 1.7 | 0.00 | 0.00 | 0.00 | 93 | 1013.7 |
| 20260904095004 | 73 | 157 | 1.7 | 1.7 | 0.00 | 0.00 | 0.00 | 93 | 1013.7 |
| 20260904093504 | 73 | 159 | 0.9 | 1.7 | 0.00 | 0.00 | 0.00 | 92 | 1013.6 |
| 20260904093004 | 73 | 159 | 0.9 | 1.7 | 0.00 | 0.00 | 0.00 | 93 | 1013.7 |
| 20260904092004 | 73 | 159 | 0.0 | 1.7 | 0.00 | 0.00 | 0.00 | 93 | 1013.6 |
| 20260904091504 | 73 | 159 | 0.9 | 0.9 | 0.00 | 0.00 | 0.00 | 92 | 1013.6 |
| 20260904090004 | 74 | 159 | 0.9 | 1.7 | 0.00 | 0.00 | 0.00 | 92 | 1013.3 |
| 20260904085504 | 74 | 159 | 1.7 | 2.6 | 0.00 | 0.00 | 0.00 | 92 | 1013.3 |
| 20260904085004 | 74 | 182 | 1.7 | 1.7 | 0.00 | 0.00 | 0.00 | 92 | 1013.2 |
| 20260904084503 | 74 | 182 | 0.9 | 1.7 | 0.00 | 0.00 | 0.00 | 92 | 1013.0 |
| 20260904084004 | 74 | 182 | 0.0 | 0.9 | 0.00 | 0.00 | 0.00 | 92 | 1013.0 |
| 20260904083504 | 74 | 182 | 0.9 | 2.6 | 0.00 | 0.00 | 0.00 | 92 | 1012.9 |
| 20260904083004 | 74 | 198 | 0.9 | 1.7 | 0.00 | 0.00 | 0.00 | 92 | 1012.9 |
| 20260904082504 | 74 | 198 | 0.9 | 1.7 | 0.00 | 0.00 | 0.00 | 91 | 1012.8 |
| 20260904081004 | 75 | 186 | 1.7 | 2.6 | 0.00 | 0.00 | 0.00 | 91 | 1012.8 |
| 20260904080503 | 75 | 179 | 1.7 | 2.6 | 0.00 | 0.00 | 0.00 | 92 | 1012.9 |
| 20260904080004 | 75 | 173 | 1.7 | 4.3 | 0.00 | 0.00 | 0.00 | 92 | 1012.9 |
| 20260904075004 | 75 | 170 | 1.7 | 2.6 | 0.00 | 0.00 | 0.00 | 92 | 1012.9 |
| 20260904074504 | 75 | 171 | 1.7 | 2.6 | 0.00 | 0.00 | 0.00 | 92 | 1012.9 |
| 20260904074004 | 75 | 162 | 1.7 | 2.6 | 0.00 | 0.00 | 0.00 | 91 | 1013.0 |
| 20260904072504 | 75 | 166 | 2.6 | 2.6 | 0.00 | 0.00 | 0.00 | 91 | 1013.1 |
| 20260904071004 | 75 | 155 | 1.7 | 2.6 | 0.00 | 0.00 | 0.00 | 91 | 1013.3 |
| 20260904070504 | 75 | 155 | 1.7 | 2.6 | 0.00 | 0.00 | 0.00 | 91 | 1013.4 |
| 20260904065504 | 75 | 155 | 1.7 | 2.6 | 0.00 | 0.00 | 0.00 | 92 | 1013.5 |
| 20260904065004 | 75 | 155 | 1.7 | 2.6 | 0.00 | 0.00 | 0.00 | 92 | 1013.5 |
| 20260904063003 | 76 | 155 | 1.7 | 2.6 | 0.00 | 0.00 | 0.00 | 91 | 1013.7 |
| 20260904061004 | 76 | 186 | 0.9 | 1.7 | 0.00 | 0.00 | 0.00 | 90 | 1013.8 |
| 20260904060504 | 76 | 186 | 0.0 | 1.7 | 0.00 | 0.00 | 0.00 | 90 | 1013.8 |
| 20260904060004 | 76 | 186 | 0.0 | 1.7 | 0.00 | 0.00 | 0.00 | 90 | 1013.8 |
| 20260904055003 | 77 | 186 | 0.9 | 1.7 | 0.00 | 0.00 | 0.00 | 90 | 1013.8 |
| 20260904054004 | 77 | 178 | 0.9 | 2.6 | 0.00 | 0.00 | 0.00 | 89 | 1013.8 |
| 20260904053504 | 77 | 176 | 0.9 | 2.6 | 0.00 | 0.00 | 0.00 | 89 | 1013.8 |
| 20260904052503 | 77 | 161 | 1.7 | 2.6 | 0.00 | 0.00 | 0.00 | 89 | 1013.8 |
| 20260904050504 | 77 | 155 | 1.7 | 2.6 | 0.00 | 0.00 | 0.00 | 89 | 1013.5 |
| 20260904044503 | 78 | 147 | 2.6 | 4.3 | 0.00 | 0.00 | 0.00 | 88 | 1013.7 |
| 20260904043006 | 78 | 140 | 3.5 | 4.3 | 0.00 | 0.00 | 0.00 | 88 | 1013.7 |
| 20260904042006 | 78 | 142 | 2.6 | 4.3 | 0.00 | 0.00 | 0.00 | 87 | 1013.7 |
| 20260904041006 | 79 | 149 | 2.6 | 4.3 | 0.00 | 0.00 | 0.00 | 87 | 1013.8 |
| 20260904040505 | 79 | 150 | 2.6 | 4.3 | 0.00 | 0.00 | 0.00 | 87 | 1013.8 |
| 20260904040006 | 79 | 141 | 1.7 | 2.6 | 0.00 | 0.00 | 0.00 | 86 | 1013.7 |
| 20260904035505 | 79 | 135 | 2.6 | 2.6 | 0.00 | 0.00 | 0.00 | 86 | 1013.7 |
| 20260904035006 | 79 | 145 | 1.7 | 2.6 | 0.00 | 0.00 | 0.00 | 86 | 1013.7 |
| 20260904034505 | 79 | 143 | 2.6 | 2.6 | 0.00 | 0.00 | 0.00 | 86 | 1013.8 |
| 20260904033005 | 80 | 150 | 1.7 | 4.3 | 0.00 | 0.00 | 0.00 | 84 | 1013.7 |
| 20260904032506 | 80 | 146 | 2.6 | 4.3 | 0.00 | 0.00 | 0.00 | 84 | 1013.7 |
| 20260904031506 | 81 | 148 | 2.6 | 5.2 | 0.00 | 0.00 | 0.00 | 83 | 1013.5 |
| 20260904031006 | 81 | 158 | 3.5 | 5.2 | 0.00 | 0.00 | 0.00 | 83 | 1013.4 |
| 20260904030506 | 81 | 148 | 3.5 | 5.2 | 0.00 | 0.00 | 0.00 | 83 | 1013.4 |
| 20260904025005 | 81 | 154 | 4.3 | 6.1 | 0.00 | 0.00 | 0.00 | 82 | 1013.2 |
| 20260904024505 | 82 | 143 | 4.3 | 7.0 | 0.00 | 0.00 | 0.00 | 82 | 1013.2 |
| 20260904024006 | 82 | 143 | 4.3 | 7.0 | 0.00 | 0.00 | 0.00 | 82 | 1013.2 |
| 20260904022505 | 81 | 142 | 5.2 | 7.8 | 0.00 | 0.00 | 0.00 | 83 | 1013.1 |
| 20260904022005 | 81 | 146 | 4.3 | 7.0 | 0.00 | 0.00 | 0.00 | 84 | 1013.0 |
| 20260904020006 | 80 | 123 | 2.6 | 2.6 | 0.00 | 0.00 | 0.00 | 86 | 1013.0 |
| 20260904015506 | 80 | 114 | 2.6 | 2.6 | 0.00 | 0.00 | 0.00 | 86 | 1013.1 |
| 20260904015006 | 80 | 112 | 1.7 | 2.6 | 0.00 | 0.00 | 0.00 | 84 | 1013.0 |
| 20260904014506 | 81 | 122 | 1.7 | 2.6 | 0.00 | 0.00 | 0.00 | 84 | 1013.0 |
| 20260904013506 | 81 | 110 | 1.7 | 2.6 | 0.00 | 0.00 | 0.00 | 83 | 1013.0 |
| 20260904012508 | 82 | 111 | 2.6 | 2.6 | 0.00 | 0.00 | 0.00 | 81 | 1012.8 |
| 20260904011005 | 83 | 123 | 2.6 | 2.6 | 0.00 | 0.00 | 0.00 | 80 | 1012.5 |
| 20260904010506 | 83 | 124 | 2.6 | 5.2 | 0.00 | 0.00 | 0.00 | 80 | 1012.4 |